Retour au catalogue

ATLAS CENTAUR R/B

ActifGTO
NORAD 8840·ROCKET BODY·🇺🇸 United States

Lancé May 13, 1976 depuis Cape Canaveral Space Force Station

Loading…

TLE

PériméSource: Space-Track

Époque: Sep 14, 2026, 01:59 UTC

1 08840U 76042B   26257.08325611  .00000013  00000-0  31196-3 0  9994
2 08840  20.9520 161.9738 7185773 306.5981 144.0583  2.22576598293358

Suivez ATLAS CENTAUR R/B en temps réel avec AllMySat

Download on the App Store